IRIDIUM 33 DEB, 38017

Orbit data source: Space-Track

IRIDIUM 33 DEB, 38017 is space debris in LEO originally from a launch on Sun, 14 Sep 1997 UTC launched from the Tyuratam Missile And Space Complex (TTMTR). The debris from Iridium 33, an American commercial communications satellite, has been tracked extensively since its accidental collision with the defunct Russian satellite Cosmos 2251 in 2009. This event, occurring at high speed in low Earth orbit (LEO), generated thousands of pieces of space debris, significantly increasing the risk of further collisions. The Iridium 33 debris cloud has impacted space traffic management and orbital debris mitigation strategies, making it a subject of ongoing study in space situational awareness.

Loading next visibility...
Identifier
38017, 1997-051YD
Orbit
LEO
Country
Flag of USUS
Related business
Manufacturer
Unknown
Mission
Spacecraft
Bus & Motor
Unknown
Mass
Unknown
Launch date (UTC)
1997-09-14 (28 years ago)
Launch vehicle
Unknown
Launch site
Tyuratam Missile And Space Complex (TTMTR)
Object type
Payload
Rocket body
Debris
Shape & HBR
Unknown shape, 0.1 m
Radar Cross Section
Small (<0.1 m²)

Expand to show TLE details & history
Last TLE update: 2 days ago

TLE from 2 days ago
0 IRIDIUM 33 DEB
1 38017U 97051YD  25352.19171995  .00015406  00000-0  38248-2 0  9993
2 38017  86.3412 163.8576 0091965  84.7873 276.3818 14.49190685614810
Epoch: 2025-12-18T04:36Z
TLE epoch observation values (Epoch: 2025-12-18T04:36:04.603Z)
Latitude
-0°
Longitude
7.78766°
Altitude
724.694 km
Speed
7.496 km/s
True Right ascension
10h 55m 25s
True Declination
0° 00' 00"
Sunlit
Object was in daylight at epoch
Visualization orbit readout
Latitude
Unknown
Longitude
Unknown
Altitude
Unknown
Speed
Unknown
Apparent Right ascension
Unknown
Apparent Declination
Unknown
Sunlit
N/A
Visualization observer readout
Local Sidereal Time
23:53:04
Azimuth
Unknown
Elevation
Unknown
Doppler factor
Unknown
Orbital elements
Apogee altitude
790.563 km
Perigee altitude
659.911 km
Semi-major axis
7,103.374 km
Eccentricity
0.0092
Inclination
86.3412°
RAAN
163.8576°
Arg. of periapsis
84.7873°
True anomaly
275.33321°
Mean anomaly
276.3818°
Eccentric anomaly
275.85763°
Mean motion
3.62532 °/min
Orbital period
99.3 mins
BSTAR
0.0038248
Loading maneuver chart data...
Computing Atmospheric mass density...

Documentation

Showing up to 5 results
|